Temp
-4 -4 -4 -4 -4 -4 -4 -4 -4 -4 -4 -4 -4 -5 -5 -5 -6 -6 -7 -6 -6 -6 -6 -6 -6 -7 -6 -5 -5 -5 -5 -4 -4 -5 -5 -5 -5 -5 -5 -5 -5 -6 -6 -6 -5
-5 -5 -5 -5 -4 -4 -4 -4 -4 -4 -4 -4 -5 -5 -5 -5 -6 -6 -6 -6 -6 -6 -6 -6 -6 -5 -5 -6 -5 -5 -5 -4 -5 -5 -5 -5 -5 -5 -6 -6 -5 -6 -6 -6 -5
-5 -5 -5 -5 -5 -5 -5 -5 -5 -4 -4 -4 -5 -5 -5 -5 -6 -5 -6 -6 -6 -6 -7 -7 -6 -5 -5 -5 -5 -6 -5 -5 -6 -5 -5 -6 -6 -6 -7 -7 -7 -6 -6 -6 -6
-5 -5 -5 -5 -5 -5 -5 -5 -5 -5 -5 -5 -5 -5 -5 -6 -6 -6 -6 -6 -6 -6 -7 -6 -5 -5 -5 -5 -6 -5 -6 -7 -6 -5 -5 -6 -6 -6 -7 -6 -7 -6 -6 -6 -6
-6 -5 -5 -5 -5 -5 -5 -5 -5 -5 -5 -5 -5 -5 -5 -5 -6 -5 -6 -6 -6 -6 -6 -5 -6 -6 -6 -6 -5 -5 -6 -6 -5 -6 -5 -6 -6 -6 -7 -7 -7 -7 -7 -7 -7
-6 -6 -5 -5 -5 -5 -5 -5 -5 -5 -5 -5 -5 -5 -5 -5 -6 -6 -7 -7 -7 -6 -5 -6 -7 -7 -7 -7 -6 -6 -7 -6 -6 -6 -7 -7 -7 -6 -9 -8 -8 -8 -8 -7 -7
-6 -6 -5 -5 -6 -6 -5 -5 -5 -5 -5 -5 -5 -5 -5 -6 -6 -6 -7 -6 -6 -6 -6 -7 -7 -7 -7 -7 -6 -6 -6 -7 -7 -7 -8 -8 -9 -8 -8 -8 -8 -8 -8 -8 -8
-7 -6 -6 -6 -6 -6 -6 -6 -5 -6 -6 -6 -6 -6 -6 -6 -6 -6 -6 -6 -6 -7 -7 -7 -7 -7 -8 -7 -6 -6 -7 -8 -7 -8 -8 -8 -9 -8 -8 -8 -8 -8 -8 -8 -7
-7 -7 -6 -6 -6 -6 -6 -6 -6 -6 -6 -6 -6 -6 -6 -6 -6 -6 -6 -6 -6 -7 -6 -6 -7 -7 -7 -8 -7 -7 -8 -8 -8 -8 -8 -8 -8 -8 -8 -8 -8 -7 -7 -7 -7
-7 -7 -7 -7 -7 -7 -7 -6 -6 -6 -6 -6 -6 -6 -6 -6 -6 -6 -6 -6 -6 -6 -6 -6 -7 -7 -7 -8 -7 -7 -8 -9 -9 -9 -8 -9 -8 -8 -8 -8 -8 -7 -7 -7 -7
-8 -8 -7 -7 -7 -7 -7 -7 -7 -6 -6 -7 -7 -6 -6 -6 -6 -6 -6 -6 -6 -7 -7 -7 -7 -7 -7 -7 -7 -7 -8 -9 -9 -8 -9 -8 -7 -8 -7 -8 -8 -8 -7 -7 -8
-8 -8 -8 -8 -7 -7 -7 -7 -7 -7 -7 -7 -6 -6 -6 -6 -6 -6 -6 -7 -6 -6 -7 -7 -7 -7 -7 -7 -7 -8 -8 -8 -8 -8 -8 -9 -8 -9 -7 -7 -7 -8 -8 -8 -8
-8 -8 -8 -8 -7 -7 -7 -7 -7 -7 -7 -7 -7 -6 -6 -6 -6 -6 -6 -6 -7 -7 -7 -7 -7 -7 -7 -7 -7 -8 -8 -7 -8 -9 -9 -9 -9 -8 -7 -7 -8 -8 -8 -8 -8
-8 -8 -8 -8 -8 -8 -7 -7 -7 -7 -7 -7 -7 -6 -6 -6 -6 -6 -6 -6 -7 -7 -7 -7 -7 -7 -7 -8 -8 -9 -8 -8 -8 -8 -9 -9 -8 -7 -7 -7 -7 -8 -8 -8 -8
-8 -8 -8 -8 -8 -8 -7 -7 -7 -7 -7 -7 -7 -7 -6 -6 -6 -6 -6 -6 -7 -7 -7 -7 -7 -8 -8 -8 -8 -8 -8 -9 -9 -8 -8 -8 -8 -8 -7 -7 -7 -8 -8 -8 -8
-8 -8 -8 -8 -8 -8 -7 -7 -7 -7 -7 -7 -7 -7 -7 -6 -6 -6 -7 -6 -7 -7 -7 -7 -8 -8 -8 -8 -8 -8 -8 -9 -9 -8 -8 -8 -8 -8 -7 -7 -7 -7 -7 -7 -7
-8 -8 -8 -8 -8 -8 -7 -7 -7 -8 -8 -7 -7 -7 -6 -7 -7 -7 -7 -7 -7 -7 -7 -8 -9 -9 -8 -8 -8 -8 -8 -9 -9 -8 -8 -8 -7 -8 -8 -8 -8 -8 -8 -7 -7
-8 -8 -8 -8 -8 -8 -8 -8 -8 -8 -8 -8 -8 -7 -7 -7 -7 -7 -7 -7 -7 -7 -8 -9 -9 -9 -9 -8 -8 -8 -9 -9 -9 -8 -8 -7 -7 -7 -8 -8 -7 -7 -8 -7 -7
-9 -8 -8 -8 -8 -8 -8 -8 -8 -8 -8 -9 -8 -8 -8 -8 -8 -8 -8 -8 -8 -8 -8 -9 -9 -9 -9 -9 -8 -9 -9 -9 -9 -8 -8 -8 -8 -8 -8 -7 -7 -8 -8 -7 -8
-9 -9 -9 -8 -8 -8 -8 -8 -8 -8 -9 -9 -8 -7 -8 -8 -8 -8 -8 -8 -8 -8 -9 -9 -9 -9 -9 -9 -9 -8 -9 -9 -8 -9 -8 -8 -8 -8 -7 -7 -7 -8 -7 -8 -8
-10 -9 -9 -8 -8 -8 -9 -9 -8 -8 -9 -9 -8 -8 -9 -9 -9 -9 -9 -9 -9 -8 -9 -9 -9 -9 -9 -9 -9 -9 -9 -9 -9 -8 -8 -8 -8 -8 -8 -8 -8 -8 -8 -8 -8
-10 -9 -9 -8 -8 -9 -9 -9 -9 -8 -9 -9 -9 -9 -9 -10 -10 -10 -10 -10 -9 -10 -9 -9 -9 -9 -9 -9 -9 -9 -8 -8 -9 -9 -9 -8 -8 -8 -8 -7 -8 -8 -8 -8 -8
-9 -9 -9 -9 -9 -9 -9 -9 -9 -9 -9 -10 -9 -9 -10 -10 -10 -10 -10 -10 -9 -9 -9 -8 -8 -9 -9 -9 -9 -9 -8 -9 -9 -8 -8 -8 -7 -8 -8 -7 -8 -8 -8 -8 -8
-10 -9 -9 -9 -9 -9 -9 -10 -10 -10 -9 -9 -9 -9 -9 -10 -10 -10 -10 -9 -9 -9 -8 -9 -9 -9 -9 -9 -9 -9 -9 -9 -8 -8 -8 -8 -7 -8 -8 -8 -8 -8 -8 -8 -8
-10 -10 -10 -10 -10 -10 -10 -10 -10 -10 -10 -10 -9 -9 -9 -9 -9 -9 -9 -9 -9 -9 -9 -10 -9 -9 -9 -9 -8 -8 -8 -8 -8 -8 -8 -8 -8 -8 -8 -8 -8 -8 -8 -8 -8
-10 -10 -10 -10 -10 -10 -10 -10 -10 -10 -10 -9 -9 -9 -10 -10 -10 -9 -9 -10 -10 -10 -10 -10 -10 -10 -9 -9 -9 -8 -8 -8 -8 -8 -8 -8 -8 -8 -8 -8 -9 -9 -8 -8 -9
-10 -10 -10 -10 -10 -10 -10 -10 -11 -11 -11 -10 -10 -9 -9 -9 -10 -9 -9 -10 -10 -10 -10 -10 -10 -9 -9 -9 -9 -8 -8 -8 -8 -8 -8 -8 -8 -8 -8 -9 -9 -9 -9 -9 -9
Height
5878 5879 5880 5880 5881 5882 5883 5883 5884 5885 5886 5888 5890 5892 5894 5896 5898 5900 5901 5903 5903 5904 5907 5909 5911 5911 5911 5912 5913 5913 5914 5915 5914 5914 5915 5914 5913 5912 5911 5910 5910 5908 5906 5906 5908
5876 5877 5877 5878 5879 5880 5881 5881 5882 5883 5884 5886 5888 5890 5893 5895 5897 5899 5901 5902 5904 5906 5907 5908 5909 5909 5912 5913 5913 5914 5915 5915 5915 5915 5914 5914 5913 5912 5912 5911 5909 5909 5907 5907 5907
5874 5875 5875 5876 5877 5878 5879 5880 5880 5880 5881 5883 5885 5888 5891 5893 5896 5898 5900 5902 5904 5906 5907 5908 5909 5912 5912 5913 5914 5914 5915 5915 5916 5916 5915 5914 5914 5913 5911 5910 5910 5909 5907 5906 5906
5872 5872 5873 5874 5875 5876 5877 5878 5878 5879 5880 5881 5883 5885 5889 5892 5896 5897 5899 5902 5904 5905 5907 5909 5910 5912 5913 5913 5914 5915 5914 5917 5917 5915 5915 5914 5914 5915 5913 5911 5909 5909 5907 5906 5905
5869 5870 5871 5872 5873 5874 5875 5876 5877 5878 5878 5879 5880 5883 5886 5890 5893 5896 5899 5901 5903 5905 5907 5908 5911 5912 5913 5915 5917 5916 5916 5917 5917 5917 5916 5916 5915 5914 5913 5913 5912 5909 5909 5907 5905
5867 5868 5869 5869 5870 5872 5873 5874 5875 5876 5877 5877 5878 5880 5884 5888 5892 5895 5897 5900 5902 5904 5907 5909 5910 5911 5914 5916 5917 5916 5916 5917 5917 5917 5916 5914 5914 5912 5913 5913 5913 5912 5910 5909 5905
5865 5866 5866 5867 5868 5870 5871 5872 5874 5875 5875 5876 5876 5878 5882 5887 5889 5892 5896 5899 5902 5905 5908 5909 5910 5912 5914 5916 5916 5916 5916 5916 5916 5916 5916 5914 5913 5910 5912 5913 5911 5910 5908 5906 5904
5862 5863 5865 5866 5867 5869 5870 5871 5872 5874 5874 5875 5875 5877 5881 5884 5886 5890 5894 5899 5902 5905 5907 5908 5910 5912 5914 5915 5916 5916 5916 5916 5916 5916 5916 5915 5913 5911 5911 5911 5910 5908 5904 5902 5900
5860 5861 5863 5864 5866 5867 5868 5870 5872 5874 5876 5876 5877 5879 5881 5883 5886 5890 5895 5899 5901 5904 5907 5909 5910 5912 5913 5914 5916 5916 5916 5916 5915 5914 5914 5914 5912 5910 5911 5910 5907 5906 5902 5899 5897
5857 5859 5861 5863 5864 5866 5867 5869 5872 5874 5877 5878 5880 5883 5884 5887 5889 5892 5896 5899 5901 5904 5906 5908 5910 5911 5912 5914 5915 5916 5916 5915 5914 5914 5912 5911 5911 5909 5909 5909 5905 5902 5900 5899 5897
5854 5857 5860 5862 5864 5866 5868 5870 5874 5876 5876 5878 5881 5884 5886 5889 5891 5894 5896 5899 5902 5904 5906 5909 5910 5911 5912 5913 5914 5915 5915 5914 5913 5913 5912 5911 5910 5909 5909 5909 5905 5900 5897 5895 5895
5851 5855 5858 5861 5863 5866 5868 5871 5874 5877 5879 5880 5882 5884 5887 5890 5893 5895 5897 5900 5902 5904 5906 5909 5909 5910 5911 5912 5913 5913 5913 5913 5913 5913 5912 5910 5908 5908 5909 5908 5904 5900 5897 5895 5895
5847 5851 5855 5859 5862 5866 5869 5872 5874 5877 5879 5881 5883 5885 5888 5891 5893 5895 5898 5900 5902 5904 5906 5907 5909 5910 5910 5911 5912 5911 5912 5913 5912 5913 5912 5910 5908 5907 5906 5904 5900 5897 5897 5895 5894
5843 5848 5852 5857 5863 5865 5867 5871 5873 5876 5879 5882 5884 5885 5888 5890 5893 5895 5897 5900 5901 5902 5904 5907 5908 5908 5909 5910 5910 5910 5911 5912 5912 5913 5912 5910 5908 5907 5907 5904 5900 5896 5893 5892 5891
5839 5844 5849 5854 5859 5863 5867 5869 5872 5876 5878 5881 5882 5884 5886 5889 5892 5894 5896 5898 5900 5902 5904 5906 5906 5907 5907 5909 5909 5909 5910 5911 5912 5912 5911 5910 5908 5907 5905 5903 5899 5895 5893 5889 5888
5834 5840 5845 5851 5856 5861 5864 5868 5871 5875 5876 5878 5879 5882 5884 5886 5889 5891 5894 5897 5899 5901 5902 5903 5904 5905 5906 5906 5907 5907 5909 5910 5911 5911 5912 5910 5909 5906 5904 5901 5898 5896 5892 5886 5887
5830 5835 5841 5848 5854 5858 5862 5866 5870 5871 5874 5874 5875 5878 5881 5883 5886 5888 5891 5894 5897 5899 5901 5902 5903 5904 5905 5905 5905 5905 5908 5909 5910 5910 5910 5908 5908 5908 5905 5903 5900 5897 5894 5890 5886
5825 5831 5837 5845 5850 5855 5860 5864 5867 5868 5869 5871 5872 5875 5878 5880 5882 5886 5889 5892 5895 5897 5899 5900 5904 5904 5904 5904 5904 5905 5907 5908 5909 5909 5909 5908 5907 5907 5906 5904 5901 5898 5893 5888 5885
5821 5827 5834 5841 5847 5853 5858 5861 5863 5865 5867 5869 5871 5874 5876 5877 5881 5884 5888 5891 5893 5896 5899 5900 5902 5903 5903 5903 5905 5904 5906 5907 5907 5908 5908 5907 5905 5905 5903 5903 5900 5896 5893 5889 5886
5818 5824 5831 5837 5844 5850 5854 5857 5860 5862 5865 5869 5871 5873 5874 5876 5880 5884 5887 5890 5892 5894 5896 5899 5902 5902 5903 5904 5904 5904 5905 5906 5906 5905 5905 5904 5903 5902 5902 5901 5898 5893 5889 5887 5884
5817 5823 5829 5835 5842 5846 5851 5854 5856 5860 5864 5868 5869 5871 5873 5876 5879 5882 5886 5889 5890 5892 5896 5899 5900 5902 5902 5902 5902 5903 5904 5904 5905 5905 5904 5902 5904 5901 5899 5898 5896 5893 5889 5886 5884
5818 5823 5828 5833 5839 5844 5848 5850 5854 5858 5862 5865 5867 5870 5872 5875 5878 5882 5885 5887 5889 5891 5894 5896 5898 5899 5900 5900 5899 5900 5900 5901 5901 5901 5900 5899 5901 5899 5897 5896 5895 5893 5889 5887 5885
5818 5822 5827 5832 5836 5839 5840 5845 5850 5855 5860 5863 5866 5869 5872 5875 5878 5880 5883 5885 5887 5889 5892 5895 5896 5896 5897 5898 5897 5897 5897 5896 5896 5897 5897 5896 5897 5894 5893 5893 5893 5890 5888 5886 5884
5817 5822 5826 5829 5833 5836 5841 5845 5848 5852 5857 5861 5865 5869 5872 5875 5877 5879 5881 5883 5885 5886 5889 5891 5892 5893 5894 5894 5894 5893 5892 5892 5892 5892 5893 5893 5892 5891 5890 5889 5888 5886 5885 5883 5881
5816 5819 5822 5826 5831 5835 5840 5843 5848 5852 5856 5858 5863 5867 5870 5872 5875 5876 5879 5881 5883 5885 5886 5888 5889 5889 5889 5889 5888 5888 5888 5887 5887 5888 5889 5889 5888 5887 5885 5885 5884 5882 5882 5879 5877
5814 5817 5820 5824 5829 5835 5838 5841 5846 5850 5854 5857 5861 5864 5866 5869 5872 5873 5875 5877 5880 5882 5883 5884 5884 5885 5884 5884 5884 5884 5884 5884 5885 5885 5884 5884 5883 5882 5881 5880 5879 5876 5876 5874 5872
5811 5814 5818 5822 5827 5832 5835 5839 5844 5847 5851 5855 5857 5861 5864 5867 5869 5871 5872 5874 5875 5877 5876 5878 5879 5879 5880 5879 5878 5879 5879 5880 5880 5879 5880 5878 5877 5875 5874 5872 5871 5870 5870 5868 5867
Wind_Speed
12 12 11 11 11 10 10 11 13 14 16 18 16 15 14 15 17 16 16 16 15 13 10 9 8 9 11 9 5 3 3 1 5 8 10 11 10 9 7 7 2 2 5 5 5
12 12 12 12 11 10 9 10 10 13 15 17 19 17 17 17 19 19 18 17 15 13 12 10 10 10 4 3 3 2 1 6 8 9 13 16 17 17 13 9 5 4 6 6 4
12 12 12 13 12 11 10 9 9 9 13 15 19 19 19 19 22 19 19 17 16 15 14 12 10 3 4 5 3 4 8 8 4 6 14 18 17 15 12 10 8 3 8 9 10
11 11 11 13 13 12 11 10 9 9 10 13 16 20 20 22 21 20 18 17 16 17 14 13 7 6 4 3 5 6 10 5 3 7 10 16 17 14 11 9 5 4 7 8 8
12 12 12 12 14 13 11 11 9 9 10 11 14 18 21 21 22 19 17 18 17 16 14 8 5 1 1 2 6 6 8 2 5 11 8 12 11 12 13 11 9 8 9 11 11
13 12 11 12 13 13 11 12 10 10 11 11 12 16 21 21 20 18 19 18 16 14 9 7 6 4 2 5 3 6 4 3 5 10 11 12 11 9 18 16 16 16 12 10 9
13 12 10 9 12 11 10 11 10 10 11 11 11 14 18 19 20 20 20 17 14 10 10 10 10 10 7 6 3 1 2 7 9 11 12 12 14 13 16 17 19 19 9 8 6
14 11 10 10 11 10 10 11 10 10 9 7 8 12 15 19 21 21 17 17 15 14 13 10 9 9 8 4 4 2 5 4 6 7 8 8 9 13 16 18 17 16 12 7 9
16 12 10 11 11 10 10 11 12 11 9 8 9 11 14 17 19 18 18 18 17 14 11 9 7 7 5 5 5 3 5 7 6 7 7 9 8 12 15 13 17 16 16 8 11
18 14 11 11 11 11 13 14 14 13 12 11 11 13 15 16 15 17 16 15 13 10 8 7 6 5 7 9 7 5 6 6 7 6 5 10 10 10 13 14 15 20 17 15 12
21 17 14 13 14 15 15 15 16 16 16 15 14 12 13 14 14 13 13 10 10 9 6 6 5 8 10 11 11 7 9 10 9 8 8 11 7 12 11 15 16 18 19 20 20
24 21 18 17 18 17 16 15 14 14 13 13 13 13 13 13 12 11 11 9 9 8 7 6 8 10 11 13 11 8 11 13 7 9 9 8 8 13 13 18 17 15 16 18 18
26 25 22 21 21 19 17 16 14 13 12 12 12 12 13 13 12 14 12 11 9 9 9 8 9 11 12 12 11 10 14 9 2 7 4 8 9 11 14 19 20 12 11 12 16
26 28 26 25 23 20 18 16 14 12 12 12 12 11 12 12 12 11 11 9 10 11 10 9 9 12 10 11 9 14 11 2 3 1 3 6 10 10 12 16 16 17 12 4 11
26 30 29 27 25 22 19 17 14 13 13 14 14 14 14 14 13 12 12 12 13 12 11 10 7 8 10 12 10 14 8 6 3 5 1 8 8 12 10 12 14 15 11 7 4
26 30 32 29 27 24 21 18 16 14 13 13 16 16 17 17 15 14 13 14 12 11 14 10 8 7 9 10 11 10 7 11 8 7 0 5 9 9 16 15 19 25 29 18 6
28 30 33 31 28 25 23 20 16 14 15 16 17 18 19 18 17 15 13 12 12 12 12 8 8 7 6 6 7 10 12 13 10 7 6 7 7 9 13 13 19 24 29 19 7
28 31 33 32 29 26 22 19 16 15 16 17 17 14 15 17 19 15 13 13 13 13 12 14 8 7 3 6 6 10 18 15 12 9 11 14 16 11 9 11 17 23 22 9 8
27 31 33 32 30 26 22 19 18 17 17 18 16 12 17 20 17 16 15 15 16 14 13 12 9 11 7 2 9 17 14 14 15 15 17 17 17 15 17 19 20 23 16 14 11
25 30 31 32 29 25 23 22 20 21 20 17 15 16 18 19 14 16 18 17 16 15 16 14 12 12 8 8 11 13 18 13 13 11 12 14 17 23 22 22 24 25 16 12 13
25 27 27 28 28 27 24 24 25 23 20 19 17 20 21 15 13 15 17 19 21 16 16 13 12 11 11 9 12 14 11 12 14 14 18 16 14 22 21 24 20 23 20 10 9
22 22 21 25 28 27 26 27 26 24 24 21 20 20 23 22 24 23 19 18 17 10 8 11 12 12 11 15 14 13 13 14 17 19 18 14 16 20 19 18 18 19 15 9 9
21 23 23 23 27 30 33 30 29 27 27 23 23 24 22 25 23 23 18 17 15 14 11 12 8 6 10 14 19 22 22 23 20 20 16 17 18 18 18 18 17 18 12 9 12
19 24 25 27 27 31 30 32 31 29 24 25 23 23 22 20 16 21 21 19 16 11 12 8 10 12 13 18 20 23 21 19 17 15 15 17 17 17 18 18 17 15 12 10 15
16 21 26 28 30 33 32 33 31 29 23 26 25 22 20 14 14 14 21 19 17 14 14 16 16 17 19 17 17 17 18 18 16 15 18 18 19 19 21 20 17 16 14 16 12
19 22 25 28 32 35 35 36 32 29 27 24 23 22 15 17 17 14 21 20 19 19 20 22 28 18 15 18 18 17 17 17 15 16 19 20 22 23 22 17 14 15 14 14 15
21 24 26 29 34 37 40 38 34 32 28 28 25 25 21 22 24 25 18 19 26 27 29 17 24 29 20 22 22 20 18 18 19 20 22 25 26 25 20 15 15 15 15 16 18
Wind_Direction
240 240 238 238 236 238 239 239 234 232 227 224 219 210 201 197 195 197 202 210 214 221 218 198 200 239 258 276 273 218 349 38 55 61 68 76 50 35 21 330 215 17 313 335 341
240 239 238 239 238 238 240 241 237 230 228 223 217 213 199 197 194 202 205 217 219 224 227 223 227 236 236 189 177 101 171 65 49 45 56 54 44 32 17 5 336 320 299 298 285
240 243 241 240 240 239 239 241 239 232 228 225 218 212 202 199 200 204 209 215 219 221 225 238 250 216 184 180 161 169 96 70 62 40 60 59 52 47 42 28 20 30 6 316 285
237 241 241 240 239 240 238 239 242 234 230 226 219 213 208 202 204 203 209 214 219 220 228 249 228 199 185 199 177 147 111 112 45 34 41 54 50 42 32 20 351 356 315 311 312
238 243 245 243 238 237 237 233 239 235 229 231 223 214 208 203 203 204 203 211 216 221 234 211 207 180 239 249 191 116 109 89 47 47 24 45 51 49 37 19 7 337 353 342 350
236 242 245 243 232 228 236 229 234 237 229 233 228 215 206 203 200 196 200 207 215 222 204 141 113 80 265 210 166 125 92 50 24 43 37 48 51 44 26 23 13 357 343 334 323
232 239 241 231 214 221 228 223 227 226 223 230 225 212 202 190 195 196 200 203 199 171 143 127 120 116 149 181 177 165 178 34 15 36 37 54 44 37 26 21 6 7 338 291 328
227 231 229 214 215 219 222 217 211 207 203 203 199 191 181 183 189 194 188 170 153 147 153 148 146 141 158 189 250 338 27 19 353 41 50 53 23 26 21 11 6 5 357 272 278
221 224 221 214 214 213 203 195 188 180 166 155 144 155 169 172 179 171 161 150 152 164 162 166 170 169 189 205 262 303 328 296 288 309 31 358 4 15 359 357 1 8 2 306 256
216 214 209 197 188 179 174 172 167 162 154 146 140 139 142 147 157 157 157 162 167 166 176 176 190 217 224 232 256 269 303 274 286 316 9 339 350 356 351 354 351 6 18 359 330
212 207 199 185 173 169 168 169 168 162 158 152 148 145 145 149 157 165 163 164 173 168 168 192 214 229 250 260 271 279 284 234 260 323 355 335 17 337 350 357 345 348 357 8 4
211 203 196 186 177 173 168 166 167 168 165 164 162 163 161 163 159 168 164 174 192 183 177 197 226 255 268 276 284 271 231 235 281 349 351 31 353 327 342 356 356 349 342 353 350
212 204 197 190 182 174 170 171 170 172 174 173 175 176 175 176 177 176 182 191 197 198 199 214 249 261 276 283 285 248 233 248 360 323 50 349 322 337 347 10 7 352 331 330 341
213 206 200 195 188 182 187 187 188 187 193 193 193 202 197 191 194 200 204 206 210 225 230 241 267 280 286 288 268 226 239 213 102 198 7 323 328 346 20 29 31 28 13 336 346
212 208 204 199 196 195 199 203 205 205 210 210 208 211 218 217 214 217 222 222 219 219 234 252 267 276 264 250 251 226 212 164 171 225 356 352 334 23 31 7 19 30 24 328 259
213 208 206 203 201 201 206 210 213 215 222 232 228 220 222 225 224 220 220 223 226 214 225 221 236 251 263 257 243 223 211 185 202 228 158 55 31 18 9 12 30 27 15 7 331
212 208 206 204 204 203 207 210 212 219 223 234 236 229 225 223 223 220 214 211 212 217 222 209 199 215 217 224 232 226 212 198 216 247 278 310 336 2 30 48 21 10 4 357 338
209 207 205 203 204 204 206 208 211 217 219 222 236 232 213 214 217 215 208 221 221 207 195 191 185 185 224 238 235 179 188 213 222 255 297 303 307 320 326 341 348 352 356 338 311
203 202 200 201 202 204 205 204 208 215 221 218 231 217 201 201 202 196 197 210 215 194 187 185 188 190 197 182 180 184 198 225 247 264 283 294 301 316 325 335 344 2 3 6 25
193 193 197 201 200 201 203 201 205 212 207 209 210 193 186 199 200 205 201 204 205 194 187 190 192 202 213 224 230 226 222 242 265 294 300 301 318 320 327 349 347 347 352 3 1
184 188 195 199 200 200 200 200 211 208 187 201 197 182 175 188 193 196 200 199 202 202 190 199 214 226 233 236 266 279 265 254 270 292 303 293 319 332 327 337 344 354 351 345 360
185 186 190 194 196 193 196 207 211 204 188 177 180 177 167 174 176 173 166 183 179 188 206 213 223 237 257 248 264 273 275 290 300 289 313 296 317 321 321 331 332 345 334 320 331
191 190 189 187 190 192 203 201 204 206 187 198 191 175 168 168 177 179 183 200 201 200 206 218 244 286 284 280 271 271 278 286 288 279 291 304 320 313 314 321 325 329 315 297 322
194 194 195 194 202 208 204 199 203 207 211 213 211 197 191 189 201 204 202 213 217 219 223 262 292 280 270 269 270 274 281 282 281 276 291 311 309 306 310 314 309 304 298 284 301
194 194 196 195 196 203 199 203 203 207 202 211 207 204 201 217 239 246 232 227 234 243 254 263 277 273 277 277 260 258 262 275 286 286 292 297 299 302 306 306 297 289 285 280 275
200 198 199 195 194 201 202 207 207 207 214 214 216 221 210 212 229 245 234 239 240 244 259 269 271 272 275 269 260 262 268 275 278 284 287 291 294 298 298 296 286 279 275 275 273
207 208 203 200 199 202 207 211 212 209 214 224 225 229 241 236 241 253 257 253 254 251 262 236 259 265 265 258 262 273 280 282 283 285 287 291 294 297 296 294 295 292 291 287 283